Presure
220 218 207 214 221 217 215 219 212 221 222 220 217 220 235 249 245 245 239 243 240 235 235 236 236 232 242 244 245 242 230 267 249 236 231 230 230 231
223 218 218 218 215 222 216 209 214 226 229 247 251 247 248 244 250 245 237 236 228 231 235 244 250 252 249 243 239 256 240 229 226 225 223 221 220 219
220 216 213 215 219 227 199 269 197 240 251 246 244 245 235 234 230 233 232 228 233 240 242 254 254 242 246 249 225 223 219 208 206 205 203 206 206 208
221 223 228 242 248 233 224 138 216 142 149 228 218 220 218 226 232 222 233 240 246 252 257 242 246 225 219 203 203 203 203 207 207 220 261 230 263 261
242 248 235 144 207 176 135 142 150 220 216 241 237 232 224 233 234 244 245 254 246 238 238 210 202 205 215 236 254 263 259 255 247 233 232 232 236 240
223 240 213 243 221 133 167 176 265 272 233 262 255 249 243 249 241 255 240 238 211 207 202 201 221 238 257 253 245 235 246 272 303 437 444 274 139 139
256 251 251 253 236 242 235 234 252 251 254 246 245 242 237 255 238 230 206 208 195 215 224 251 252 241 225 249 268 288 401 424 410 395 386 376 367 363
241 257 253 258 245 233 246 266 267 245 239 236 240 248 233 223 199 200 200 227 229 247 249 237 228 244 264 279 408 402 388 375 370 370 360 355 384 392
250 256 254 255 254 253 247 240 240 243 237 227 224 212 197 199 197 213 243 245 248 227 230 237 256 265 395 390 381 372 376 399 437 570 527 487 468 436
246 251 254 250 246 241 231 228 227 221 209 202 199 194 219 218 235 245 244 219 229 239 257 261 352 389 374 369 375 404 375 393 490 515 521 518 479 459
239 241 230 224 218 215 212 205 195 193 207 218 219 232 241 244 236 219 228 239 250 261 379 406 373 366 350 374 398 399 339 387 414 447 464 471 466 466
223 216 214 206 199 192 190 219 218 217 216 235 242 241 221 227 234 241 250 257 291 413 391 373 346 372 395 389 319 403 337 382 383 388 408 426 434 438
199 191 187 188 212 211 208 216 225 238 241 234 224 226 232 241 251 261 428 422 396 383 364 345 390 406 410 296 386 411 384 353 385 386 381 373 380 401
198 215 212 207 207 228 238 241 241 232 219 224 231 237 247 256 392 428 405 381 370 354 368 385 357 333 372 367 351 349 356 370 324 355 343 363 384 384
205 222 230 236 239 240 238 220 217 225 231 236 245 255 440 439 414 378 358 355 341 333 366 342 332 334 331 329 328 322 323 332 325 329 339 353 366 356
235 239 237 231 227 215 215 219 227 234 245 294 459 435 399 372 352 364 343 327 372 354 336 330 320 321 305 313 306 308 313 309 315 318 321 320 325 332
233 230 227 218 223 223 230 231 251 425 413 364 352 337 322 315 351 331 318 364 361 315 312 317 315 310 297 294 298 303 304 312 316 307 313 322 314 320
232 228 225 227 230 238 320 361 407 366 339 331 321 345 355 334 323 319 351 371 325 312 298 298 294 299 303 315 332 327 322 331 347 348 354 351 348 318
227 228 228 238 323 332 416 376 346 326 321 309 375 347 329 317 308 351 351 344 306 298 306 292 286 288 298 323 346 350 344 330 308 308 306 307 304 378
219 249 323 319 337 395 359 336 321 312 338 370 341 324 316 307 346 344 368 305 298 300 292 288 298 320 340 358 319 304 304 303 313 319 310 315 311 316
306 330 273 315 392 355 331 317 307 301 331 348 326 315 305 323 343 350 334 302 298 286 286 307 320 302 302 295 289 283 265 269 278 273 287 301 305 306
276 282 321 330 362 334 315 305 295 295 335 344 317 307 300 340 337 364 305 307 287 289 314 312 300 298 288 280 281 263 280 280 277 278 313 306 299 300
265 282 332 365 346 320 306 296 292 317 326 344 314 305 297 352 348 312 295 286 288 310 304 295 277 279 263 264 262 262 265 260 253 261 267 339 329 320
Wind_Speed
82 84 88 88 87 86 88 84 94 90 89 88 87 87 90 89 87 84 82 84 83 85 86 86 86 86 86 85 84 82 81 82 76 76 75 76 76 77
84 87 87 88 87 88 89 90 89 90 91 89 89 87 86 84 85 83 81 81 83 86 89 90 88 86 86 85 85 86 80 77 78 79 80 80 81 82
87 87 89 90 87 89 85 73 63 75 78 79 79 81 82 81 81 81 81 83 87 90 91 91 87 86 87 85 80 80 80 80 82 83 83 84 85 86
90 90 91 86 74 71 89 53 85 55 60 80 79 81 82 84 85 83 87 90 92 94 92 89 89 81 79 76 78 82 85 88 89 94 104 100 107 108
86 81 78 53 67 64 53 52 61 89 84 89 86 83 84 86 86 91 91 92 89 91 89 78 78 82 87 94 101 105 104 103 101 97 99 100 102 105
79 78 82 74 82 54 52 77 77 71 74 81 77 79 86 86 86 86 85 87 80 85 84 86 94 100 110 108 101 98 106 117 127 90 82 75 70 71
59 60 61 54 74 71 76 77 73 74 69 72 77 78 81 80 79 80 76 80 83 92 95 109 109 107 96 112 120 128 96 84 83 82 82 82 83 82
58 50 53 57 68 73 73 63 65 61 64 68 73 74 75 76 73 76 80 89 95 108 106 106 105 116 124 130 87 85 87 87 87 84 83 83 81 76
51 52 52 54 57 56 55 58 61 63 65 68 70 72 71 75 76 86 100 102 105 99 100 107 119 125 85 81 83 83 80 76 72 53 59 63 66 70
49 49 47 47 48 48 51 56 60 63 65 67 69 72 80 83 93 98 99 93 103 110 114 120 94 72 77 78 75 66 66 65 45 46 39 40 48 56
36 37 39 42 45 50 55 59 63 65 71 76 79 88 94 96 94 91 99 104 112 121 80 57 67 66 73 72 65 55 63 53 49 36 28 28 26 31
35 40 45 48 51 54 58 67 72 75 80 89 91 91 87 93 97 101 108 115 115 50 57 55 64 60 52 57 56 48 53 45 43 39 35 22 18 16
42 47 50 54 60 63 67 74 80 85 87 87 87 90 93 98 107 114 53 42 48 49 51 52 46 45 42 51 49 48 38 38 37 36 31 28 26 23
49 55 58 61 66 73 77 79 81 82 81 86 91 96 103 109 65 38 40 44 45 44 43 27 27 36 30 32 33 35 33 33 35 33 30 28 25 23
56 61 65 68 71 74 76 75 78 84 88 92 99 106 41 34 33 39 44 42 45 42 17 26 29 29 29 29 32 30 34 29 28 30 30 31 27 25
59 61 64 68 71 73 76 80 85 90 98 95 31 32 36 40 43 34 38 40 34 24 25 24 26 24 30 34 29 33 31 32 31 28 26 25 25 24
60 64 68 71 75 79 85 87 96 55 44 56 54 54 53 53 33 35 36 29 17 25 29 29 26 23 23 28 38 33 32 28 26 30 30 24 22 23
65 70 73 77 81 88 92 85 46 50 54 53 52 41 30 32 35 34 30 22 16 19 25 27 32 37 36 36 32 30 30 30 30 30 29 28 24 17
70 74 78 85 86 84 42 45 48 48 48 48 25 27 30 31 31 30 27 14 16 19 21 23 29 33 38 40 29 12 18 22 24 23 24 25 24 25
74 82 81 79 78 42 43 45 44 45 39 23 26 28 29 29 30 26 19 14 17 20 22 25 27 28 25 21 20 32 33 33 32 30 30 26 24 24
80 73 74 76 43 42 42 43 42 43 36 25 26 27 28 30 27 25 8 10 14 19 22 25 20 21 25 26 26 31 24 29 32 32 34 34 32 26
73 75 74 69 44 41 41 41 40 41 33 23 25 26 26 28 25 18 8 9 15 18 21 18 18 21 25 24 27 23 36 33 31 37 33 27 27 28
72 75 68 51 42 39 38 40 40 38 31 23 24 24 25 27 20 6 9 13 16 18 17 16 15 21 17 21 24 30 32 33 33 34 35 31 23 22
Wind_Direction
285 283 284 284 284 286 286 287 288 287 287 287 289 290 288 287 287 286 286 287 287 287 287 286 287 286 287 286 284 281 279 282 275 273 271 269 268 267
281 281 282 283 284 285 283 281 283 285 285 286 286 285 286 287 287 288 289 290 289 289 289 289 290 289 287 284 284 285 281 278 277 275 272 270 268 266
281 281 281 282 284 284 283 285 284 283 284 285 285 286 286 287 288 290 290 289 289 290 291 290 289 287 286 286 282 282 281 280 278 276 275 273 271 268
279 279 280 281 280 277 281 288 283 285 285 285 286 286 290 291 291 292 292 292 293 291 289 290 289 288 287 286 285 283 281 280 280 276 279 274 274 271
278 279 278 283 278 277 287 286 279 287 287 283 284 287 285 289 292 293 293 292 292 292 292 293 293 292 290 287 290 289 288 288 284 279 276 275 273 271
274 275 274 275 275 289 286 286 279 277 280 279 286 287 288 289 290 290 291 292 295 295 298 296 293 295 295 293 293 291 289 290 291 288 286 279 272 273
274 273 271 269 273 274 278 283 279 278 281 283 284 286 287 288 289 289 294 295 298 295 296 298 297 297 295 297 296 296 295 294 292 289 286 284 281 280
269 269 269 261 263 278 281 277 283 284 286 288 287 287 288 289 294 296 298 296 296 297 298 299 300 297 299 300 299 299 299 298 296 292 286 282 276 272
267 268 267 270 270 276 284 289 289 287 285 286 287 290 295 297 300 295 298 298 296 298 299 299 299 300 299 298 300 300 303 303 300 290 280 272 263 260
267 271 277 281 283 285 285 284 285 285 289 292 293 295 294 295 296 296 295 302 300 299 301 303 299 298 299 299 302 309 306 310 335 326 306 283 271 261
279 285 287 288 287 286 287 289 293 295 295 296 297 298 296 295 296 302 301 299 300 301 302 302 298 301 301 303 306 311 308 321 325 342 341 325 300 277
289 287 288 291 291 292 295 294 296 297 298 296 294 294 299 300 300 301 301 301 300 298 302 303 300 304 308 307 310 317 314 326 331 340 338 334 317 289
290 292 295 295 296 297 296 298 295 292 291 293 298 300 301 302 302 301 303 302 300 303 303 303 312 313 316 304 309 318 320 326 336 341 346 348 348 329
295 301 300 299 298 293 291 291 292 293 298 300 301 302 302 302 304 309 306 303 304 307 312 323 321 316 337 325 335 341 329 328 330 340 345 353 351 345
300 296 294 293 292 293 294 297 301 300 301 302 302 300 307 311 311 305 304 308 308 309 315 314 318 327 335 342 339 341 342 353 350 352 2 2 353 355
296 295 295 294 295 298 301 302 303 303 302 300 315 316 313 309 307 309 310 310 320 315 320 321 322 339 332 336 331 333 337 337 340 341 350 348 351 359
298 298 299 301 300 301 302 303 302 310 313 308 309 309 308 308 311 311 310 318 309 318 326 331 333 333 328 331 325 328 326 330 332 331 334 342 342 340
304 302 302 303 303 303 306 310 314 310 309 310 310 311 314 314 312 314 318 320 312 327 323 328 334 331 331 335 336 322 315 325 335 335 333 328 326 327
304 304 306 306 311 312 319 313 311 310 312 312 318 315 315 314 313 320 323 311 326 323 333 334 330 330 328 325 347 8 5 28 6 7 1 1 355 4
308 310 314 315 318 321 315 314 315 314 319 317 314 315 315 317 325 326 325 322 324 332 336 332 328 335 341 345 15 16 13 8 4 3 5 9 7 2
319 318 318 322 324 319 316 316 317 318 322 318 316 320 321 328 329 330 325 319 328 329 332 338 12 18 21 25 29 33 2 5 8 360 359 356 353 359
322 324 326 327 323 319 317 317 319 320 324 316 315 319 324 333 332 327 327 352 331 331 344 26 36 33 45 41 38 3 28 22 19 16 2 343 338 332
324 329 332 330 322 319 317 318 322 325 321 315 314 321 328 332 332 324 319 330 329 344 43 33 45 49 12 19 15 11 10 2 355 352 348 5 341 326